Location: Black Swamp Observatory
(41.3920°N, 84.1250°W)
Time: 05:33:08
(UTC-04:00)

Courier 1B Rocket - Pass Details

Date: 20 January 2022
Orbit: 920 x 1202 km, 28.2° (Epoch: 28 May)

Event Time Altitude Azimuth Distance (km) Brightness Sun altitude
Exits shadow 05:01:30 24° 170° (S) 1,879 6.5 -32.8°
Drops below altitude 10° 05:06:05 10° 123° (ESE) 2,646 7.9 -31.9°
Sets 05:09:09 0° 110° (ESE) 3,567 8.9 -31.3°
